| time (UTC) | temp F | wind direction | speed MPH | gust MPH | rain 1hr in | rain 24hr in | rain mn in | humidity % | barometer mb |
| 20260901084612 | 80 | 169 | 5.0 | 8.0 | 0.00 | 0.00 | 0.00 | 82 | 1017.6 |
| 20260901084120 | 80 | 181 | 5.0 | 9.0 | 0.00 | 0.00 | 0.00 | 82 | 1017.6 |
| 20260901083613 | 80 | 195 | 6.0 | 9.0 | 0.00 | 0.00 | 0.00 | 82 | 1017.7 |
| 20260901083107 | 81 | 175 | 6.0 | 9.0 | 0.00 | 0.00 | 0.00 | 82 | 1017.5 |
| 20260901082046 | 81 | 199 | 6.0 | 9.0 | 0.00 | 0.00 | 0.00 | 82 | 1017.6 |
| 20260901081603 | 81 | 168 | 7.0 | 12.0 | 0.00 | 0.00 | 0.00 | 81 | 1017.6 |
| 20260901080549 | 81 | 176 | 6.0 | 10.0 | 0.00 | 0.00 | 0.00 | 81 | 1017.5 |
| 20260901080053 | 81 | 182 | 8.0 | 10.0 | 0.00 | 0.00 | 0.00 | 80 | 1017.6 |
| 20260901075545 | 81 | 163 | 7.0 | 10.0 | 0.00 | 0.00 | 0.00 | 79 | 1017.6 |
| 20260901075106 | 81 | 153 | 8.0 | 11.0 | 0.00 | 0.00 | 0.00 | 80 | 1017.5 |
| 20260901074605 | 81 | 182 | 8.0 | 12.0 | 0.00 | 0.00 | 0.00 | 80 | 1017.5 |
| 20260901074106 | 81 | 158 | 9.0 | 11.0 | 0.00 | 0.00 | 0.00 | 78 | 1017.6 |
| 20260901073135 | 82 | 165 | 8.0 | 13.0 | 0.00 | 0.00 | 0.00 | 78 | 1017.5 |
| 20260901072628 | 82 | 167 | 10.0 | 13.0 | 0.00 | 0.00 | 0.00 | 77 | 1017.6 |
| 20260901072105 | 82 | 168 | 9.0 | 12.0 | 0.00 | 0.00 | 0.00 | 77 | 1017.6 |
| 20260901071617 | 82 | 157 | 7.0 | 12.0 | 0.00 | 0.00 | 0.00 | 77 | 1017.7 |
| 20260901071130 | 82 | 153 | 7.0 | 9.0 | 0.00 | 0.00 | 0.00 | 76 | 1017.7 |
| 20260901070047 | 82 | 174 | 6.0 | 9.0 | 0.00 | 0.00 | 0.00 | 75 | 1017.7 |
| 20260901065542 | 82 | 159 | 6.0 | 11.0 | 0.00 | 0.00 | 0.00 | 75 | 1018.3 |
| 20260901065055 | 83 | 164 | 8.0 | 11.0 | 0.00 | 0.00 | 0.00 | 75 | 1017.5 |
| 20260901064550 | 83 | 149 | 8.0 | 12.0 | 0.00 | 0.00 | 0.00 | 74 | 1017.3 |
| 20260901064043 | 83 | 176 | 8.0 | 12.0 | 0.00 | 0.00 | 0.00 | 74 | 1017.3 |
| 20260901063537 | 83 | 149 | 9.0 | 11.0 | 0.00 | 0.00 | 0.00 | 73 | 1017.4 |
| 20260901063050 | 83 | 160 | 8.0 | 11.0 | 0.00 | 0.00 | 0.00 | 73 | 1017.3 |
| 20260901062545 | 83 | 172 | 8.0 | 12.0 | 0.00 | 0.00 | 0.00 | 73 | 1017.1 |
| 20260901062116 | 83 | 163 | 9.0 | 14.0 | 0.00 | 0.00 | 0.00 | 72 | 1017.2 |
| 20260901061549 | 83 | 171 | 10.0 | 14.0 | 0.00 | 0.00 | 0.00 | 73 | 1017.2 |
| 20260901061042 | 84 | 161 | 10.0 | 12.0 | 0.00 | 0.00 | 0.00 | 73 | 1017.1 |
| 20260901060616 | 84 | 153 | 10.0 | 13.0 | 0.00 | 0.00 | 0.00 | 73 | 1017.2 |
| 20260901060108 | 84 | 153 | 10.0 | 13.0 | 0.00 | 0.00 | 0.00 | 71 | 1017.2 |
| 20260901055541 | 84 | 159 | 11.0 | 14.0 | 0.00 | 0.00 | 0.00 | 71 | 1017.2 |
| 20260901055110 | 84 | 153 | 11.0 | 14.0 | 0.00 | 0.00 | 0.00 | 72 | 1017.1 |
| 20260901054604 | 84 | 138 | 11.0 | 14.0 | 0.00 | 0.00 | 0.00 | 71 | 1017.1 |
| 20260901054056 | 84 | 147 | 10.0 | 14.0 | 0.00 | 0.00 | 0.00 | 69 | 1017.1 |
| 20260901053550 | 85 | 145 | 12.0 | 16.0 | 0.00 | 0.00 | 0.00 | 70 | 1017.1 |
| 20260901053041 | 85 | 147 | 10.0 | 16.0 | 0.00 | 0.00 | 0.00 | 69 | 1017.1 |
| 20260901052539 | 85 | 137 | 10.0 | 14.0 | 0.00 | 0.00 | 0.00 | 70 | 1017.1 |
| 20260901052053 | 85 | 140 | 9.0 | 14.0 | 0.00 | 0.00 | 0.00 | 70 | 1017.0 |
| 20260901051548 | 85 | 153 | 11.0 | 16.0 | 0.00 | 0.00 | 0.00 | 70 | 1017.0 |
| 20260901051040 | 85 | 138 | 11.0 | 16.0 | 0.00 | 0.00 | 0.00 | 69 | 1017.1 |
| 20260901050554 | 85 | 154 | 12.0 | 19.0 | 0.00 | 0.00 | 0.00 | 69 | 1016.9 |
| 20260901050108 | 85 | 153 | 13.0 | 19.0 | 0.00 | 0.00 | 0.00 | 67 | 1017.0 |
| 20260901045608 | 85 | 159 | 12.0 | 16.0 | 0.00 | 0.00 | 0.00 | 68 | 1016.9 |
| 20260901045102 | 85 | 159 | 12.0 | 15.0 | 0.00 | 0.00 | 0.00 | 68 | 1017.0 |
| 20260901044115 | 86 | 150 | 11.0 | 14.0 | 0.00 | 0.00 | 0.00 | 67 | 1017.0 |
| 20260901043618 | 86 | 155 | 11.0 | 18.0 | 0.00 | 0.00 | 0.00 | 67 | 1016.9 |
| 20260901043121 | 86 | 141 | 12.0 | 16.0 | 0.00 | 0.00 | 0.00 | 67 | 1017.0 |
| 20260901042621 | 86 | 136 | 12.0 | 16.0 | 0.00 | 0.00 | 0.00 | 66 | 1016.9 |
| 20260901042135 | 86 | 140 | 12.0 | 20.0 | 0.00 | 0.00 | 0.00 | 67 | 1016.9 |
| 20260901041647 | 86 | 143 | 14.0 | 20.0 | 0.00 | 0.00 | 0.00 | 66 | 1017.0 |
| 20260901041124 | 87 | 152 | 15.0 | 22.0 | 0.00 | 0.00 | 0.00 | 67 | 1016.9 |
| 20260901040539 | 87 | 161 | 18.0 | 24.0 | 0.00 | 0.00 | 0.00 | 65 | 1016.9 |
| 20260901040052 | 87 | 158 | 14.0 | 23.0 | 0.00 | 0.00 | 0.00 | 65 | 1016.9 |
| 20260901035607 | 87 | 162 | 12.0 | 16.0 | 0.00 | 0.00 | 0.00 | 65 | 1016.9 |
| 20260901035104 | 87 | 162 | 13.0 | 19.0 | 0.00 | 0.00 | 0.00 | 65 | 1016.7 |
| 20260901034605 | 87 | 175 | 15.0 | 20.0 | 0.00 | 0.00 | 0.00 | 66 | 1016.8 |
| 20260901034105 | 88 | 149 | 15.0 | 20.0 | 0.00 | 0.00 | 0.00 | 65 | 1016.6 |
| 20260901033128 | 88 | 137 | 11.0 | 18.0 | 0.00 | 0.00 | 0.00 | 64 | 1016.7 |
| 20260901032622 | 88 | 155 | 12.0 | 18.0 | 0.00 | 0.00 | 0.00 | 63 | 1016.5 |
| 20260901032111 | 88 | 147 | 12.0 | 15.0 | 0.00 | 0.00 | 0.00 | 64 | 1016.4 |
| 20260901031047 | 89 | 162 | 8.0 | 13.0 | 0.00 | 0.00 | 0.00 | 65 | 1016.2 |
| 20260901030604 | 89 | 170 | 10.0 | 13.0 | 0.00 | 0.00 | 0.00 | 63 | 1016.2 |
| 20260901025628 | 88 | 139 | 6.0 | 11.0 | 0.00 | 0.00 | 0.00 | 63 | 1016.0 |
| 20260901025127 | 88 | 130 | 4.0 | 8.0 | 0.00 | 0.00 | 0.00 | 62 | 1015.9 |
| 20260901024637 | 89 | 105 | 5.0 | 11.0 | 0.00 | 0.00 | 0.00 | 62 | 1015.8 |
| 20260901024127 | 89 | 118 | 6.0 | 11.0 | 0.00 | 0.00 | 0.00 | 62 | 1015.8 |
| 20260901023113 | 89 | 139 | 7.0 | 9.0 | 0.00 | 0.00 | 0.00 | 62 | 1015.6 |
| 20260901022546 | 89 | 131 | 5.0 | 8.0 | 0.00 | 0.00 | 0.00 | 60 | 1015.6 |
| 20260901022124 | 89 | 143 | 5.0 | 8.0 | 0.00 | 0.00 | 0.00 | 60 | 1015.5 |
| 20260901021111 | 90 | 126 | 7.0 | 12.0 | 0.00 | 0.00 | 0.00 | 61 | 1015.3 |
| 20260901020543 | 90 | 132 | 8.0 | 12.0 | 0.00 | 0.00 | 0.00 | 60 | 1015.2 |
| 20260901020130 | 90 | 126 | 8.0 | 13.0 | 0.00 | 0.00 | 0.00 | 61 | 1015.2 |
| 20260901015628 | 90 | 136 | 10.0 | 13.0 | 0.00 | 0.00 | 0.00 | 60 | 1015.2 |
| 20260901015130 | 90 | 157 | 10.0 | 13.0 | 0.00 | 0.00 | 0.00 | 60 | 1015.1 |
| 20260901014607 | 90 | 138 | 9.0 | 12.0 | 0.00 | 0.00 | 0.00 | 59 | 1015.1 |
| 20260901014052 | 91 | 143 | 9.0 | 14.0 | 0.00 | 0.00 | 0.00 | 58 | 1015.2 |
| 20260901013610 | 91 | 134 | 10.0 | 13.0 | 0.00 | 0.00 | 0.00 | 56 | 1015.1 |
| 20260901013053 | 91 | 140 | 9.0 | 12.0 | 0.00 | 0.00 | 0.00 | 56 | 1015.0 |
| 20260901012548 | 91 | 147 | 8.0 | 11.0 | 0.00 | 0.00 | 0.00 | 56 | 1014.9 |
| 20260901012148 | 92 | 141 | 7.0 | 11.0 | 0.00 | 0.00 | 0.00 | 55 | 1014.9 |
| 20260901011621 | 92 | 133 | 9.0 | 13.0 | 0.00 | 0.00 | 0.00 | 52 | 1014.9 |
| 20260901011111 | 91 | 129 | 9.0 | 13.0 | 0.00 | 0.00 | 0.00 | 51 | 1014.9 |
| 20260901010135 | 92 | 118 | 1.0 | 4.0 | 0.00 | 0.00 | 0.00 | 49 | 1014.5 |
| 20260901005627 | 92 | 118 | 2.0 | 6.0 | 0.00 | 0.00 | 0.00 | 48 | 1014.7 |
| 20260901005111 | 93 | 118 | 3.0 | 7.0 | 0.00 | 0.00 | 0.00 | 47 | 1014.6 |
| 20260901004552 | 93 | 112 | 5.0 | 7.0 | 0.00 | 0.00 | 0.00 | 47 | 1014.7 |
| 20260901004049 | 93 | 107 | 5.0 | 7.0 | 0.00 | 0.00 | 0.00 | 45 | 1014.7 |
| 20260901003604 | 94 | 114 | 5.0 | 8.0 | 0.00 | 0.00 | 0.00 | 44 | 1014.7 |
| 20260901002632 | 94 | 128 | 6.0 | 8.0 | 0.00 | 0.00 | 0.00 | 45 | 1014.7 |
| 20260901002038 | 94 | 100 | 5.0 | 9.0 | 0.00 | 0.00 | 0.00 | 45 | 1014.6 |
| 20260901001640 | 94 | 120 | 6.0 | 10.0 | 0.00 | 0.00 | 0.00 | 43 | 1014.5 |
| 20260901001114 | 94 | 116 | 8.0 | 11.0 | 0.00 | 0.00 | 0.00 | 43 | 1014.3 |
| 20260901000613 | 94 | 126 | 9.0 | 13.0 | 0.00 | 0.00 | 0.00 | 44 | 1014.5 |
| 20260901000122 | 94 | 111 | 8.0 | 13.0 | 0.00 | 0.00 | 0.00 | 45 | 1014.4 |
| 20260831235617 | 94 | 101 | 6.0 | 12.0 | 0.00 | 0.00 | 0.00 | 45 | 1014.3 |
| 20260831235115 | 94 | 106 | 8.0 | 13.0 | 0.00 | 0.00 | 0.00 | 45 | 1014.3 |
| 20260831234630 | 94 | 99 | 10.0 | 13.0 | 0.00 | 0.00 | 0.00 | 45 | 1014.4 |
| 20260831234125 | 94 | 116 | 8.0 | 12.0 | 0.00 | 0.00 | 0.00 | 45 | 1014.3 |
| 20260831233603 | 94 | 143 | 9.0 | 12.0 | 0.00 | 0.00 | 0.00 | 46 | 1014.3 |
| 20260831233102 | 94 | 126 | 7.0 | 14.0 | 0.00 | 0.00 | 0.00 | 46 | 1014.5 |
| 20260831232559 | 94 | 127 | 8.0 | 16.0 | 0.00 | 0.00 | 0.00 | 45 | 1014.4 |
| 20260831232101 | 94 | 99 | 11.0 | 18.0 | 0.00 | 0.00 | 0.00 | 47 | 1014.3 |
| 20260831231559 | 94 | 114 | 12.0 | 18.0 | 0.00 | 0.00 | 0.00 | 47 | 1014.4 |
| 20260831231113 | 94 | 122 | 6.0 | 12.0 | 0.00 | 0.00 | 0.00 | 46 | 1014.4 |
| 20260831230612 | 94 | 120 | 9.0 | 12.0 | 0.00 | 0.00 | 0.00 | 48 | 1014.4 |
| 20260831230106 | 94 | 151 | 9.0 | 12.0 | 0.00 | 0.00 | 0.00 | 47 | 1014.5 |
| 20260831225051 | 93 | 161 | 4.0 | 10.0 | 0.00 | 0.00 | 0.00 | 49 | 1014.5 |
| 20260831224602 | 93 | 174 | 1.0 | 8.0 | 0.00 | 0.00 | 0.00 | 52 | 1014.7 |
| 20260831224053 | 93 | 150 | 6.0 | 9.0 | 0.00 | 0.00 | 0.00 | 51 | 1014.5 |
| 20260831223553 | 93 | 185 | 5.0 | 12.0 | 0.00 | 0.00 | 0.00 | 52 | 1014.5 |
| 20260831223051 | 93 | 159 | 7.0 | 12.0 | 0.00 | 0.00 | 0.00 | 53 | 1014.7 |
| 20260831222552 | 93 | 168 | 6.0 | 11.0 | 0.00 | 0.00 | 0.00 | 52 | 1014.7 |
| 20260831222050 | 93 | 146 | 7.0 | 11.0 | 0.00 | 0.00 | 0.00 | 47 | 1014.8 |
| 20260831221603 | 93 | 152 | 8.0 | 13.0 | 0.00 | 0.00 | 0.00 | 49 | 1014.8 |
| 20260831221055 | 93 | 149 | 10.0 | 13.0 | 0.00 | 0.00 | 0.00 | 51 | 1014.9 |
| 20260831220555 | 93 | 164 | 6.0 | 13.0 | 0.00 | 0.00 | 0.00 | 49 | 1014.9 |
| 20260831220154 | 93 | 126 | 10.0 | 13.0 | 0.00 | 0.00 | 0.00 | 49 | 1014.9 |
| 20260831215627 | 93 | 128 | 11.0 | 13.0 | 0.00 | 0.00 | 0.00 | 50 | 1015.0 |
| 20260831215121 | 93 | 151 | 7.0 | 14.0 | 0.00 | 0.00 | 0.00 | 49 | 1015.1 |
| 20260831214619 | 93 | 139 | 9.0 | 14.0 | 0.00 | 0.00 | 0.00 | 48 | 1015.1 |
| 20260831214113 | 93 | 118 | 8.0 | 16.0 | 0.00 | 0.00 | 0.00 | 48 | 1015.1 |
| 20260831213608 | 93 | 138 | 10.0 | 16.0 | 0.00 | 0.00 | 0.00 | 51 | 1015.0 |
| 20260831213102 | 93 | 140 | 9.0 | 14.0 | 0.00 | 0.00 | 0.00 | 48 | 1015.1 |
| 20260831212615 | 93 | 97 | 7.0 | 12.0 | 0.00 | 0.00 | 0.00 | 49 | 1015.1 |
| 20260831212111 | 93 | 164 | 4.0 | 14.0 | 0.00 | 0.00 | 0.00 | 51 | 1015.1 |
| 20260831211608 | 93 | 142 | 9.0 | 14.0 | 0.00 | 0.00 | 0.00 | 51 | 1015.2 |
| 20260831211104 | 93 | 112 | 8.0 | 13.0 | 0.00 | 0.00 | 0.00 | 50 | 1015.4 |
| 20260831210602 | 92 | 101 | 9.0 | 13.0 | 0.00 | 0.00 | 0.00 | 52 | 1015.6 |
| 20260831210100 | 92 | 167 | 7.0 | 13.0 | 0.00 | 0.00 | 0.00 | 51 | 1015.8 |
| 20260831205558 | 92 | 132 | 9.0 | 15.0 | 0.00 | 0.00 | 0.00 | 52 | 1015.7 |
| 20260831205057 | 92 | 158 | 9.0 | 19.0 | 0.00 | 0.00 | 0.00 | 55 | 1015.6 |
| 20260831204549 | 92 | 149 | 9.0 | 19.0 | 0.00 | 0.00 | 0.00 | 50 | 1015.9 |
| 20260831204050 | 92 | 116 | 8.0 | 14.0 | 0.00 | 0.00 | 0.00 | 51 | 1015.9 |
| 20260831203605 | 92 | 159 | 7.0 | 10.0 | 0.00 | 0.00 | 0.00 | 52 | 1016.1 |
| 20260831203105 | 91 | 172 | 3.0 | 10.0 | 0.00 | 0.00 | 0.00 | 53 | 1016.1 |
| 20260831202623 | 91 | 168 | 8.0 | 11.0 | 0.00 | 0.00 | 0.00 | 54 | 1016.2 |
| 20260831202117 | 91 | 174 | 9.0 | 18.0 | 0.00 | 0.00 | 0.00 | 54 | 1016.3 |
| 20260831201616 | 91 | 156 | 13.0 | 18.0 | 0.00 | 0.00 | 0.00 | 53 | 1016.3 |
| 20260831201113 | 91 | 153 | 7.0 | 10.0 | 0.00 | 0.00 | 0.00 | 57 | 1016.4 |
| 20260831200611 | 91 | 132 | 8.0 | 12.0 | 0.00 | 0.00 | 0.00 | 54 | 1016.6 |
| 20260831200107 | 91 | 143 | 8.0 | 13.0 | 0.00 | 0.00 | 0.00 | 53 | 1016.7 |
| 20260831195606 | 91 | 179 | 10.0 | 13.0 | 0.00 | 0.00 | 0.00 | 53 | 1016.9 |
| 20260831195108 | 91 | 149 | 7.0 | 12.0 | 0.00 | 0.00 | 0.00 | 55 | 1016.9 |
| 20260831194621 | 91 | 162 | 6.0 | 12.0 | 0.00 | 0.00 | 0.00 | 56 | 1016.9 |
| 20260831194115 | 90 | 153 | 8.0 | 16.0 | 0.00 | 0.00 | 0.00 | 54 | 1017.1 |
| 20260831193611 | 90 | 157 | 11.0 | 16.0 | 0.00 | 0.00 | 0.00 | 58 | 1017.1 |
| 20260831193107 | 90 | 156 | 8.0 | 11.0 | 0.00 | 0.00 | 0.00 | 59 | 1017.1 |
| 20260831192605 | 90 | 166 | 2.0 | 10.0 | 0.00 | 0.00 | 0.00 | 57 | 1017.2 |
| 20260831192102 | 90 | 147 | 6.0 | 15.0 | 0.00 | 0.00 | 0.00 | 58 | 1017.3 |
| 20260831191045 | 90 | 138 | 1.0 | 13.0 | 0.00 | 0.00 | 0.00 | 60 | 1017.4 |
| 20260831190552 | 89 | 142 | 8.0 | 13.0 | 0.00 | 0.00 | 0.00 | 58 | 1017.4 |
| 20260831190048 | 89 | 140 | 4.0 | 11.0 | 0.00 | 0.00 | 0.00 | 60 | 1017.4 |
| 20260831185651 | 89 | 134 | 4.0 | 11.0 | 0.00 | 0.00 | 0.00 | 59 | 1017.4 |
| 20260831185037 | 89 | 108 | 5.0 | 10.0 | 0.00 | 0.00 | 0.00 | 60 | 1017.4 |
| 20260831184624 | 89 | 206 | 7.0 | 10.0 | 0.00 | 0.00 | 0.00 | 64 | 1017.6 |
| 20260831184127 | 89 | 207 | 2.0 | 8.0 | 0.00 | 0.00 | 0.00 | 64 | 1017.7 |
| 20260831183604 | 89 | 182 | 6.0 | 10.0 | 0.00 | 0.00 | 0.00 | 61 | 1017.6 |
| 20260831183117 | 89 | 136 | 7.0 | 15.0 | 0.00 | 0.00 | 0.00 | 62 | 1017.6 |
| 20260831182616 | 88 | 137 | 9.0 | 15.0 | 0.00 | 0.00 | 0.00 | 61 | 1017.6 |
| 20260831182135 | 88 | 170 | 5.0 | 12.0 | 0.00 | 0.00 | 0.00 | 62 | 1017.8 |
| 20260831181615 | 88 | 147 | 6.0 | 15.0 | 0.00 | 0.00 | 0.00 | 63 | 1017.9 |
| 20260831181113 | 88 | 170 | 8.0 | 15.0 | 0.00 | 0.00 | 0.00 | 64 | 1017.9 |
| 20260831180623 | 88 | 192 | 6.0 | 16.0 | 0.00 | 0.00 | 0.00 | 65 | 1017.8 |
| 20260831180114 | 88 | 159 | 9.0 | 16.0 | 0.00 | 0.00 | 0.00 | 65 | 1017.9 |
| 20260831175612 | 88 | 138 | 8.0 | 14.0 | 0.00 | 0.00 | 0.00 | 65 | 1018.0 |
| 20260831174546 | 87 | 196 | 7.0 | 11.0 | 0.00 | 0.00 | 0.00 | 67 | 1018.2 |
| 20260831174043 | 87 | 161 | 8.0 | 11.0 | 0.00 | 0.00 | 0.00 | 69 | 1018.1 |
| 20260831173556 | 86 | 148 | 2.0 | 11.0 | 0.00 | 0.00 | 0.00 | 69 | 1018.2 |
| 20260831173109 | 86 | 138 | 5.0 | 9.0 | 0.00 | 0.00 | 0.00 | 71 | 1018.2 |
| 20260831172135 | 86 | 165 | 2.0 | 6.0 | 0.00 | 0.00 | 0.00 | 71 | 1018.3 |
| 20260831171542 | 86 | 193 | 2.0 | 6.0 | 0.00 | 0.00 | 0.00 | 71 | 1018.4 |
| 20260831171049 | 86 | 210 | 4.0 | 6.0 | 0.00 | 0.00 | 0.00 | 72 | 1018.4 |
| 20260831170650 | 85 | 197 | 1.0 | 5.0 | 0.00 | 0.00 | 0.00 | 72 | 1018.4 |
| 20260831170123 | 85 | 210 | 2.0 | 8.0 | 0.00 | 0.00 | 0.00 | 72 | 1018.5 |
| 20260831165603 | 85 | 182 | 6.0 | 9.0 | 0.00 | 0.00 | 0.00 | 72 | 1018.4 |
| 20260831164635 | 85 | 173 | 3.0 | 12.0 | 0.00 | 0.00 | 0.00 | 73 | 1018.6 |
| 20260831164134 | 85 | 181 | 5.0 | 12.0 | 0.00 | 0.00 | 0.00 | 74 | 1018.7 |
| 20260831163617 | 85 | 168 | 6.0 | 10.0 | 0.00 | 0.00 | 0.00 | 76 | 1018.7 |
| 20260831163109 | 85 | 153 | 8.0 | 10.0 | 0.00 | 0.00 | 0.00 | 74 | 1018.6 |
| 20260831162608 | 84 | 191 | 5.0 | 9.0 | 0.00 | 0.00 | 0.00 | 75 | 1018.6 |
| 20260831162057 | 84 | 151 | 5.0 | 9.0 | 0.00 | 0.00 | 0.00 | 76 | 1018.6 |
| 20260831161634 | 84 | 146 | 7.0 | 9.0 | 0.00 | 0.00 | 0.00 | 77 | 1018.7 |
| 20260831161128 | 84 | 176 | 4.0 | 9.0 | 0.00 | 0.00 | 0.00 | 77 | 1018.7 |
| 20260831160620 | 84 | 178 | 5.0 | 9.0 | 0.00 | 0.00 | 0.00 | 79 | 1018.7 |
| 20260831160116 | 83 | 193 | 5.0 | 10.0 | 0.00 | 0.00 | 0.00 | 77 | 1018.6 |
| 20260831155612 | 83 | 166 | 8.0 | 10.0 | 0.00 | 0.00 | 0.00 | 78 | 1018.6 |
| 20260831155109 | 83 | 156 | 8.0 | 11.0 | 0.00 | 0.00 | 0.00 | 79 | 1018.5 |
| 20260831154622 | 83 | 184 | 8.0 | 11.0 | 0.00 | 0.00 | 0.00 | 79 | 1018.4 |
| 20260831154122 | 83 | 161 | 8.0 | 10.0 | 0.00 | 0.00 | 0.00 | 81 | 1018.5 |
| 20260831153634 | 82 | 190 | 6.0 | 10.0 | 0.00 | 0.00 | 0.00 | 82 | 1018.4 |
| 20260831152549 | 82 | 165 | 6.0 | 12.0 | 0.00 | 0.00 | 0.00 | 82 | 1018.3 |
| 20260831152131 | 82 | 158 | 7.0 | 12.0 | 0.00 | 0.00 | 0.00 | 84 | 1018.4 |
| 20260831151629 | 82 | 161 | 9.0 | 11.0 | 0.00 | 0.00 | 0.00 | 83 | 1018.4 |
| 20260831151124 | 82 | 178 | 8.0 | 15.0 | 0.00 | 0.00 | 0.00 | 84 | 1018.4 |
| 20260831150620 | 81 | 174 | 8.0 | 15.0 | 0.00 | 0.00 | 0.00 | 84 | 1018.3 |
| 20260831150118 | 81 | 188 | 9.0 | 13.0 | 0.00 | 0.00 | 0.00 | 85 | 1018.3 |
| 20260831145630 | 81 | 188 | 7.0 | 12.0 | 0.00 | 0.00 | 0.00 | 85 | 1018.4 |
| 20260831145043 | 81 | 197 | 9.0 | 12.0 | 0.00 | 0.00 | 0.00 | 86 | 1018.2 |
| 20260831144543 | 81 | 175 | 8.0 | 11.0 | 0.00 | 0.00 | 0.00 | 86 | 1018.2 |
| 20260831144045 | 81 | 182 | 7.0 | 11.0 | 0.00 | 0.00 | 0.00 | 86 | 1018.1 |
| 20260831143648 | 81 | 170 | 9.0 | 11.0 | 0.00 | 0.00 | 0.00 | 86 | 1018.1 |
| 20260831143129 | 81 | 220 | 8.0 | 11.0 | 0.00 | 0.00 | 0.00 | 87 | 1018.2 |
| 20260831142627 | 80 | 182 | 6.0 | 12.0 | 0.00 | 0.00 | 0.00 | 86 | 1018.1 |
| 20260831142124 | 80 | 213 | 8.0 | 14.0 | 0.00 | 0.00 | 0.00 | 87 | 1018.3 |
| 20260831141629 | 80 | 207 | 12.0 | 14.0 | 0.00 | 0.00 | 0.00 | 87 | 1018.2 |
| 20260831141128 | 80 | 226 | 9.0 | 15.0 | 0.00 | 0.00 | 0.00 | 87 | 1018.1 |
| 20260831140625 | 80 | 205 | 10.0 | 15.0 | 0.00 | 0.00 | 0.00 | 87 | 1018.1 |
| 20260831140123 | 80 | 213 | 10.0 | 13.0 | 0.00 | 0.00 | 0.00 | 87 | 1018.0 |
| 20260831135133 | 80 | 186 | 8.0 | 11.0 | 0.00 | 0.00 | 0.00 | 88 | 1017.9 |
| 20260831134630 | 80 | 197 | 7.0 | 15.0 | 0.00 | 0.00 | 0.00 | 88 | 1018.0 |
| 20260831134123 | 80 | 200 | 10.0 | 13.0 | 0.00 | 0.00 | 0.00 | 88 | 1018.0 |
| 20260831133622 | 79 | 190 | 8.0 | 10.0 | 0.00 | 0.00 | 0.00 | 88 | 1017.9 |
| 20260831133120 | 80 | 195 | 7.0 | 9.0 | 0.00 | 0.00 | 0.00 | 88 | 1017.9 |
| 20260831132623 | 79 | 188 | 6.0 | 8.0 | 0.00 | 0.00 | 0.00 | 88 | 1017.8 |
| 20260831132129 | 79 | 183 | 6.0 | 8.0 | 0.00 | 0.00 | 0.00 | 88 | 1017.9 |
| 20260831131621 | 79 | 180 | 6.0 | 9.0 | 0.00 | 0.00 | 0.00 | 88 | 1017.7 |
| 20260831131117 | 79 | 162 | 6.0 | 8.0 | 0.00 | 0.00 | 0.00 | 88 | 1017.6 |
| 20260831130621 | 79 | 197 | 4.0 | 7.0 | 0.00 | 0.00 | 0.00 | 88 | 1017.9 |
| 20260831130121 | 79 | 177 | 5.0 | 7.0 | 0.00 | 0.00 | 0.00 | 88 | 1017.7 |
| 20260831125626 | 79 | 172 | 5.0 | 6.0 | 0.00 | 0.00 | 0.00 | 88 | 1017.8 |
| 20260831125123 | 79 | 125 | 4.0 | 5.0 | 0.00 | 0.00 | 0.00 | 88 | 1017.8 |
| 20260831124623 | 79 | 126 | 2.0 | 8.0 | 0.00 | 0.00 | 0.00 | 88 | 1017.5 |
| 20260831124125 | 79 | 106 | 5.0 | 8.0 | 0.00 | 0.00 | 0.00 | 88 | 1017.5 |
| 20260831123625 | 79 | 107 | 5.0 | 7.0 | 0.00 | 0.00 | 0.00 | 88 | 1017.5 |
| 20260831123127 | 79 | 126 | 5.0 | 7.0 | 0.00 | 0.00 | 0.00 | 88 | 1017.6 |
| 20260831122121 | 79 | 121 | 6.0 | 8.0 | 0.00 | 0.00 | 0.00 | 88 | 1017.3 |
| 20260831121131 | 79 | 195 | 6.0 | 7.0 | 0.00 | 0.00 | 0.00 | 88 | 1017.3 |
| 20260831120632 | 79 | 188 | 5.0 | 8.0 | 0.00 | 0.00 | 0.00 | 87 | 1017.3 |
| 20260831115635 | 79 | 185 | 5.0 | 7.0 | 0.00 | 0.00 | 0.00 | 88 | 1017.3 |
| 20260831115114 | 79 | 178 | 5.0 | 8.0 | 0.00 | 0.00 | 0.00 | 88 | 1017.3 |
| 20260831114615 | 79 | 201 | 5.0 | 8.0 | 0.00 | 0.00 | 0.00 | 87 | 1017.2 |
| 20260831114118 | 79 | 188 | 6.0 | 8.0 | 0.00 | 0.00 | 0.00 | 87 | 1017.0 |
| 20260831113623 | 79 | 195 | 5.0 | 8.0 | 0.00 | 0.00 | 0.00 | 88 | 1017.0 |
| 20260831113118 | 79 | 193 | 5.0 | 8.0 | 0.00 | 0.00 | 0.00 | 87 | 1017.0 |
| 20260831112615 | 79 | 197 | 4.0 | 7.0 | 0.00 | 0.00 | 0.00 | 87 | 1017.0 |
| 20260831112110 | 79 | 205 | 5.0 | 8.0 | 0.00 | 0.00 | 0.00 | 87 | 1017.0 |
| 20260831111616 | 79 | 218 | 6.0 | 7.0 | 0.00 | 0.00 | 0.00 | 87 | 1017.1 |
| 20260831111101 | 79 | 201 | 5.0 | 8.0 | 0.00 | 0.00 | 0.00 | 87 | 1017.2 |
| 20260831110116 | 79 | 204 | 5.0 | 7.0 | 0.00 | 0.00 | 0.00 | 87 | 1017.1 |
| 20260831105618 | 79 | 196 | 5.0 | 7.0 | 0.00 | 0.00 | 0.00 | 87 | 1017.2 |
| 20260831105120 | 79 | 221 | 6.0 | 8.0 | 0.00 | 0.00 | 0.00 | 87 | 1017.2 |
| 20260831104622 | 79 | 211 | 5.0 | 8.0 | 0.00 | 0.00 | 0.00 | 87 | 1017.1 |
| 20260831104108 | 79 | 199 | 6.0 | 8.0 | 0.00 | 0.00 | 0.00 | 87 | 1017.1 |
| 20260831103135 | 79 | 203 | 4.0 | 8.0 | 0.00 | 0.00 | 0.00 | 87 | 1017.2 |
| 20260831102635 | 79 | 186 | 4.0 | 8.0 | 0.00 | 0.00 | 0.00 | 87 | 1017.1 |
| 20260831102045 | 79 | 207 | 5.0 | 9.0 | 0.00 | 0.00 | 0.00 | 87 | 1017.2 |
| 20260831101549 | 79 | 203 | 6.0 | 11.0 | 0.00 | 0.00 | 0.00 | 87 | 1017.1 |
| 20260831101053 | 79 | 172 | 7.0 | 11.0 | 0.00 | 0.00 | 0.00 | 87 | 1017.2 |
| 20260831100654 | 80 | 197 | 7.0 | 9.0 | 0.00 | 0.00 | 0.00 | 87 | 1017.1 |
| 20260831100131 | 80 | 186 | 7.0 | 10.0 | 0.00 | 0.00 | 0.00 | 87 | 1017.1 |
| 20260831095632 | 80 | 186 | 8.0 | 10.0 | 0.00 | 0.00 | 0.00 | 87 | 1017.3 |
| 20260831095129 | 80 | 189 | 8.0 | 11.0 | 0.00 | 0.00 | 0.00 | 87 | 1017.2 |
| 20260831094132 | 80 | 170 | 7.0 | 13.0 | 0.00 | 0.00 | 0.00 | 87 | 1017.1 |
| 20260831093627 | 80 | 182 | 10.0 | 13.0 | 0.00 | 0.00 | 0.00 | 86 | 1017.0 |
| 20260831093121 | 80 | 186 | 9.0 | 13.0 | 0.00 | 0.00 | 0.00 | 87 | 1017.1 |
| 20260831092634 | 80 | 193 | 10.0 | 14.0 | 0.00 | 0.00 | 0.00 | 86 | 1017.0 |
| 20260831092127 | 80 | 176 | 11.0 | 15.0 | 0.00 | 0.00 | 0.00 | 86 | 1017.0 |
| 20260831091604 | 80 | 166 | 10.0 | 15.0 | 0.00 | 0.00 | 0.00 | 86 | 1017.0 |
| 20260831090546 | 80 | 178 | 10.0 | 14.0 | 0.00 | 0.00 | 0.00 | 85 | 1017.1 |
| 20260831090106 | 81 | 185 | 9.0 | 13.0 | 0.00 | 0.00 | 0.00 | 86 | 1017.1 |
| 20260831085550 | 80 | 191 | 11.0 | 13.0 | 0.00 | 0.00 | 0.00 | 85 | 1017.0 |
| 20260831085154 | 80 | 197 | 10.0 | 13.0 | 0.00 | 0.00 | 0.00 | 85 | 1017.1 |